KBTL-WX Weather Reports


time (UTC)temp
F
wind
direction
speed
knots
gust
knots
rain 1hr
in
rain 24hr
in
rain mn
in
humidity
%
barometer
mb
20260509043029 46 172 5.2 0.0 0.00 0.00 0.00 45 973.9
20260509041513 48 174 5.2 0.0 0.00 0.00 0.00 45 974.0
20260509040041 48 169 4.3 0.0 0.00 0.00 0.00 45 974.0
20260509034514 49 174 5.2 0.0 0.00 0.00 0.00 34 974.9
20260509033028 49 174 5.2 0.0 0.00 0.00 0.00 28 975.7
20260509031513 49 166 5.2 0.0 0.00 0.00 0.00 28 975.7
20260509030040 51 166 4.3 0.0 0.00 0.00 0.00 28 975.7
20260509024513 51 177 3.5 0.0 0.00 0.00 0.00 28 975.3
20260509023031 52 180 3.5 0.0 0.00 0.00 0.00 33 975.7
20260509021513 52 215 3.5 0.0 0.00 0.00 0.00 33 975.7
20260509020038 52 234 2.6 0.0 0.00 0.00 0.00 33 975.7
20260509014513 53 248 3.5 0.0 0.00 0.00 0.00 35 975.0
20260509013027 53 254 2.6 0.0 0.00 0.00 0.00 35 975.0
20260509011513 53 298 3.5 0.0 0.00 0.00 0.00 35 974.9
20260509010035 54 305 3.5 0.0 0.00 0.00 0.00 35 974.9
20260509004512 55 305 4.3 0.0 0.00 0.00 0.00 28 974.6
20260509003031 56 289 4.3 0.0 0.00 0.00 0.00 27 976.0
20260509001512 57 291 4.3 0.0 0.00 0.00 0.00 27 976.0
20260509000039 59 292 6.1 0.0 0.00 0.00 0.00 27 976.0
20260508234512 60 288 7.0 0.0 0.00 0.00 0.00 31 975.2
20260508233031 61 284 7.8 0.0 0.00 0.00 0.00 27 975.8
20260508231514 61 280 8.7 0.0 0.00 0.00 0.00 27 975.8
20260508230036 62 276 8.7 0.0 0.00 0.00 0.00 27 975.8
20260508224514 62 272 8.7 0.0 0.00 0.00 0.00 28 975.6
20260508223032 62 283 9.6 0.0 0.00 0.00 0.00 27 976.5
20260508221515 62 278 8.7 0.0 0.00 0.00 0.00 27 976.5
20260508220034 63 266 8.7 0.0 0.00 0.00 0.00 27 976.5
20260508214515 63 263 8.7 0.0 0.00 0.00 0.00 26 976.9
20260508213032 63 259 8.7 0.0 0.00 0.00 0.00 26 976.5
20260508211514 63 261 8.7 0.0 0.00 0.00 0.00 26 976.5
20260508210039 63 258 8.7 0.0 0.00 0.00 0.00 26 976.5
20260508204515 63 253 8.7 0.0 0.00 0.00 0.00 33 976.9
20260508203032 63 254 9.6 0.0 0.00 0.00 0.00 32 976.6
20260508201514 63 253 10.4 0.0 0.00 0.00 0.00 32 976.6
20260508200035 64 249 8.7 0.0 0.00 0.00 0.00 28 976.2
20260508194515 63 248 8.7 0.0 0.00 0.00 0.00 30 977.0
20260508193028 64 249 8.7 0.0 0.00 0.00 0.00 30 977.0
20260508191514 63 252 8.7 0.0 0.00 0.00 0.00 30 976.9
20260508190036 63 254 8.7 0.0 0.00 0.00 0.00 30 976.9
20260508184514 62 254 8.7 0.0 0.00 0.00 0.00 32 977.7
20260508183033 62 253 9.6 0.0 0.00 0.00 0.00 35 977.2
20260508181514 62 248 8.7 0.0 0.00 0.00 0.00 35 977.3
20260508180038 62 245 8.7 0.0 0.00 0.00 0.00 35 977.3
20260508174514 62 240 7.8 0.0 0.00 0.00 0.00 33 978.2
20260508173033 61 239 8.7 0.0 0.00 0.00 0.00 33 978.3
20260508171514 61 237 8.7 0.0 0.00 0.00 0.00 33 978.3
20260508170038 61 239 8.7 0.0 0.00 0.00 0.00 32 978.3
20260508164514 60 240 7.8 0.0 0.00 0.00 0.00 35 977.9
20260508163032 60 243 7.0 0.0 0.00 0.00 0.00 35 978.5
20260508161514 59 246 6.1 0.0 0.00 0.00 0.00 35 978.5
20260508160039 58 247 5.2 0.0 0.00 0.00 0.00 35 978.5
20260508154515 57 241 4.3 0.0 0.00 0.00 0.00 42 979.2
20260508153034 57 233 3.5 0.0 0.00 0.00 0.00 41 978.6
20260508151514 56 223 2.6 0.0 0.00 0.00 0.00 41 978.6
20260508150038 55 215 3.5 0.0 0.00 0.00 0.00 41 978.6
20260508144515 54 208 2.6 0.0 0.00 0.00 0.00 55 978.6
20260508143030 53 216 2.6 0.0 0.00 0.00 0.00 49 978.8
20260508141515 52 214 1.7 0.0 0.00 0.00 0.00 49 978.8
20260508140040 52 220 0.9 0.0 0.00 0.00 0.00 58 978.6
20260508134514 51 212 1.7 0.0 0.00 0.00 0.00 72 978.6
20260508133029 49 175 1.7 0.0 0.00 0.00 0.00 72 978.5
20260508131515 47 180 1.7 0.0 0.00 0.00 0.00 72 978.5
20260508130041 46 193 1.7 0.0 0.00 0.00 0.00 72 978.5
20260508124515 44 201 0.9 0.0 0.00 0.00 0.00 90 977.4
20260508123031 44 184 4.3 0.0 0.00 0.00 0.00 87 978.4
20260508121514 42 178 4.3 0.0 0.00 0.00 0.00 87 978.4
20260508120044 41 171 3.5 0.0 0.00 0.00 0.00 87 978.4
20260508114514 39 173 2.6 0.0 0.00 0.00 0.00 89 977.4
20260508113035 38 172 2.6 0.0 0.00 0.00 0.00 89 978.1
20260508111514 37 166 2.6 0.0 0.00 0.00 0.00 89 978.1
20260508110035 36 172 2.6 0.0 0.00 0.00 0.00 89 978.1
20260508104517 36 174 3.5 0.0 0.00 0.00 0.00 85 977.2
20260508103033 36 171 3.5 0.0 0.00 0.00 0.00 89 978.4
20260508101517 36 175 3.5 0.0 0.00 0.00 0.00 89 978.4
20260508100034 37 170 3.5 0.0 0.00 0.00 0.00 89 978.4
20260508094516 37 165 4.3 0.0 0.00 0.00 0.00 83 977.6
20260508093029 37 165 4.3 0.0 0.00 0.00 0.00 81 978.2
20260508091517 38 170 2.6 0.0 0.00 0.00 0.00 81 978.2
20260508090038 38 167 1.7 0.0 0.00 0.00 0.00 81 978.2
20260508084516 38 167 1.7 0.0 0.00 0.00 0.00 84 977.6
20260508083034 38 229 3.5 0.0 0.00 0.00 0.00 83 977.7
20260508081516 39 223 3.5 0.0 0.00 0.00 0.00 83 977.7
20260508080040 39 223 3.5 0.0 0.00 0.00 0.00 83 977.7
20260508074517 39 227 2.6 0.0 0.00 0.00 0.00 84 978.5
20260508073034 39 225 2.6 0.0 0.00 0.00 0.00 84 978.5
20260508071516 39 212 1.7 0.0 0.00 0.00 0.00 84 978.6
20260508070041 39 243 0.9 0.0 0.00 0.00 0.00 84 978.6
20260508064515 40 292 0.9 0.0 0.00 0.00 0.00 83 978.0
20260508063029 40 169 0.9 0.0 0.00 0.00 0.00 82 978.5
20260508061516 40 153 0.0 0.0 0.00 0.00 0.00 82 978.5
20260508060044 41 143 0.9 0.0 0.00 0.00 0.00 82 978.5
20260508054515 41 153 0.0 0.0 0.00 0.00 0.00 77 979.2
20260508053035 41 158 0.9 0.0 0.00 0.00 0.00 83 979.2
20260508051515 41 95 1.7 0.0 0.00 0.00 0.00 83 979.1
20260508050041 41 70 1.7 0.0 0.00 0.00 0.00 83 979.1
20260508044514 41 57 2.6 0.0 0.00 0.00 0.00 79 978.9